Regional Weather Roundup
Issued by NWS

Home | Current Version | Previous Version | Graphics & Text | Print | Product List | Glossary On
Versions: 1 2 3 4 5 6 7 8 9 10 11 12 13 14 15 16 17 18 19 20 21 22 23 24 25 26 27 28 29 30 31 32 33 34 35 36 37 38 39 40 41 42 43 44 45 46 47 48 49 50
000
ASUS45 KBOU 200507
RWRCO

WEATHER ROUNDUP FOR COLORADO
NATIONAL WEATHER SERVICE DENVER/BOULDER CO
1100 PM MDT TUE AUG 19 2014

NOTE: "FAIR" INDICATES FEW OR NO CLOUDS BELOW 12000 FEET WITH NO
SIGNIFICANT WEATHER AND/OR OBSTRUCTIONS TO VISIBILITY.

COZ001>005-013-030-031-200600-
...NORTHWEST COLORADO...

CITY           SKY/WX    TMP DP  RH WIND       PRES   REMARKS
CRAIG          LGT RAIN  57  53  86 S8        30.04R
HAYDEN         CLOUDY    59  50  72 SE8       30.08R
MEEKER         LGT RAIN  57  54  89 NE7       30.06F
MOUNT WERNER   NOT AVBL
STEAMBOAT SPGS CLOUDY    57  51  81 SE10G16   30.11R
WALDEN         CLOUDY    54  50  87 CALM      30.15S
$$

COZ006>008-011-200600-
...WEST CENTRAL VALLEYS...

CITY           SKY/WX    TMP DP  RH WIND       PRES   REMARKS
GRAND JUNCTION CLOUDY    62  60  93 SW3       29.97F
MONTROSE       CLOUDY    63  58  83 CALM      30.05F
EAGLE          CLOUDY    57  55  94 E6        30.13F
RIFLE          CLOUDY    61  57  87 SE5       30.03F
DELTA          RAIN      66  59  79 NE8       30.01F
NUCLA          CLOUDY    64  54  68 SE3       30.08S
$$

COZ017>023-064>068-200600-
...SOUTHWEST COLORADO...

CITY           SKY/WX    TMP DP  RH WIND       PRES   REMARKS
DURANGO        CLOUDY    62  52  69 E5        30.12R
CORTEZ         MOCLDY    61  58  90 CALM      30.07F
PAGOSA SPRINGS CLOUDY    55  54  94 CALM      30.19S
TELLURIDE      NOT AVBL
WOLF CREEK PAS NOT AVBL
$$

COZ009-010-012-014-032>034-037-058>063-200600-
...CENTRAL COLORADO...

CITY           SKY/WX    TMP DP  RH WIND       PRES   REMARKS
ASPEN          CLOUDY    56  53  90 CALM      30.16F
BUENA VISTA    CLOUDY    57  50  79 CALM      30.15S
COPPER MTN     RAIN      45  41  87 W20       30.43R VSB<1/4
BERTHOUD PASS  CLOUDY    43  43 100 MISG      30.47S
COTTONWOOD PAS CLOUDY    59  39  47 SE5       30.28S
GUNNISON       CLOUDY    61  46  59 SW3       30.16S
KREMMLING      LGT RAIN  55  50  82 CALM      30.17R
LEADVILLE      LGT RAIN  49  45  86 NE6       30.28R
MONARCH PASS   CLOUDY    45  39  81 SW15      30.53S
SALIDA         CLOUDY    62  50  66 CALM      30.19S
SUNLIGHT       CLOUDY    48  46  93 CALM      30.34F FOG
WILKERSON PASS CLOUDY    50  36  57 S7        30.40S
$$

COZ069>075-200600-
...SAN LUIS VALLEY/SANGRE DE CRISTO MOUNTAINS...

CITY           SKY/WX    TMP DP  RH WIND       PRES   REMARKS
ALAMOSA        CLOUDY    66  38  35 SW15      30.12S
LA VETA PASS   CLOUDY    55  37  50 S13G20    30.31S
SAGUACHE       CLOUDY    64  41  42 CALM      30.15R
$$

COZ035-036-038>040-200600-
...NORTHERN COLORADO FRONT RANGE...

CITY           SKY/WX    TMP DP  RH WIND       PRES   REMARKS
DENVER INTL AP MOCLDY    63  57  81 S9        29.94R
DMNS CITY PARK   N/A     68  55  62 S6        29.92F
AURORA         MOCLDY    66  56  70 S6        29.96S
FRONT RANGE AP MOCLDY    64  59  82 SE7       29.96R
ERIE MUNI ARPT MOCLDY    62  51  67 CALM      29.92S
BOULDER MUN AP MOCLDY    64  50  59 NW5       29.92S
CENTENNIAL     MOCLDY    64  55  72 SE6       29.97S
BROOMFIELD     NOT AVBL
FORT COLLINS   MOCLDY    70  52  52 N5        29.92F
LONGMONT       MOCLDY    66  54  66 NW5       29.93S
$$

COZ041-046-047-076>085-087-088-200600-
...PIKES PEAK/PALMER DIVIDE AND SOUTHERN FOOTHILLS...

CITY           SKY/WX    TMP DP  RH WIND       PRES   REMARKS
COLO. SPRINGS  CLOUDY    67  49  52 NE7       30.01R
A. F. ACADEMY  CLOUDY    60  50  69 N8        30.02S
ELLICOTT       MOCLDY    65  46  50 SE8       29.99R
FALCON         MOCLDY    62  49  62 N5        30.06S
FORT CARSON    CLOUDY    66  50  55 NW2       29.98R
LIMON          PTCLDY    65  48  54 CALM      29.94F
MONUMENT HILL  MOCLDY    59  46  63 E6        30.05S
TRINIDAD       CLOUDY    71  48  43 S6        29.97F
$$

COZ042>045-048>051-090-091-200600-
...NORTHEAST COLORADO...

CITY           SKY/WX    TMP DP  RH WIND       PRES   REMARKS
GREELEY ARPT   MOCLDY    64  52  63 E8        29.91S
AKRON          MOCLDY    64  60  87 CALM      29.89F
BURLINGTON     CLOUDY    76  48  37 SW7       29.89R
WRAY             N/A     68  65  89 E5        29.83F
STERLING       MOCLDY    66  63  88 CALM      29.84F
HOLYOKE        NOT AVBL
FORT MORGAN    MOCLDY    63  55  73 NE7       29.90S
$$

COZ086-089-092>099-200600-
...SOUTHEAST COLORADO...

CITY           SKY/WX    TMP DP  RH WIND       PRES   REMARKS
PUEBLO         MOCLDY    72  50  45 NW6       29.88S
LA JUNTA       CLOUDY    80  51  36 S6        29.85F
LAMAR          PTCLDY    80  54  40 S15       29.82R
SPRINGFIELD      N/A     74  56  53 S14       29.92R
$$


USA.gov is the U.S. government's official web portal to all federal, state and local government web resources and services.